RH
86 85 88 86 84 82 80 81 82 82 82 82 84 85 85 84 84 91 87 90 89 97 97 85 79 97 86 86 96 100 96 99 100 100 100 99 99 98 99 82 93 95 97 98 98 98 94 55 43 54 64 56 49 46
89 90 88 86 84 82 81 81 81 82 83 83 84 86 85 85 86 88 95 88 88 93 99 97 95 94 94 98 94 96 95 96 94 99 100 99 100 100 98 98 74 98 86 93 91 87 60 51 55 50 50 49 43 39
88 90 90 91 90 86 82 82 81 81 83 84 84 85 84 86 87 89 93 94 94 100 100 98 96 94 87 95 91 97 98 93 97 94 99 99 100 99 98 98 87 79 68 87 82 66 54 50 39 40 38 33 28 27
87 88 87 86 85 83 82 82 82 83 84 84 84 84 85 87 88 89 96 99 94 98 100 100 89 95 86 89 95 92 84 96 96 98 100 100 100 97 99 91 84 76 66 77 78 59 56 54 42 34 30 29 27 28
91 87 85 87 86 84 82 82 83 85 85 84 83 83 85 88 89 91 95 96 93 90 100 100 99 94 89 93 97 95 93 94 99 99 100 99 99 97 97 97 99 69 70 82 96 55 59 43 35 33 34 35 38 42
90 89 90 91 88 88 84 84 84 85 85 84 84 85 87 88 86 97 100 99 88 95 98 99 97 99 93 94 98 97 93 98 99 100 100 100 86 91 95 95 66 44 61 55 49 32 36 39 34 48 58 56 54 55
82 80 82 83 86 89 90 87 86 85 84 84 84 86 88 89 94 99 99 98 92 95 100 99 98 100 97 96 99 99 98 99 99 100 100 99 86 91 99 94 41 38 34 25 30 31 41 57 62 56 56 55 57 55
84 81 80 82 88 93 92 92 87 85 84 84 85 85 89 89 92 97 98 88 91 97 98 99 98 98 97 99 99 98 100 100 99 99 99 98 99 98 95 49 40 32 25 47 47 55 59 58 58 58 56 59 63 66
82 84 84 83 90 92 95 90 88 85 85 85 84 87 94 97 100 100 84 86 95 96 98 99 95 99 98 99 99 100 99 99 96 99 78 79 92 91 65 46 35 52 57 57 62 69 70 73 67 61 61 65 71 73
80 82 82 81 90 90 94 88 87 84 84 83 90 98 99 100 90 84 96 99 99 99 99 98 89 98 89 97 99 99 100 98 96 90 65 90 88 50 42 49 58 64 62 63 90 92 83 80 72 66 64 67 68 66
76 80 80 78 81 92 92 91 90 86 85 97 99 99 99 92 98 99 99 98 99 98 99 98 84 95 82 97 99 85 98 94 96 82 90 88 84 75 82 87 82 73 70 73 74 78 84 79 84 73 70 70 68 71
77 76 80 74 74 77 85 85 80 86 91 86 93 96 98 99 99 95 94 95 95 88 99 99 94 95 98 94 98 97 96 92 90 74 86 84 98 94 90 90 87 82 78 74 68 73 84 82 86 82 77 79 84 89
84 69 76 71 71 71 70 69 69 70 64 77 91 99 99 96 96 89 94 84 94 92 98 98 99 99 98 92 99 96 94 93 73 91 83 87 92 85 84 82 87 83 79 79 79 78 77 81 87 88 89 90 97 96
84 68 68 81 78 74 75 70 71 73 74 91 87 90 89 93 89 86 73 84 96 96 96 96 99 99 99 95 93 93 78 77 87 92 70 98 91 87 81 81 84 79 83 80 77 80 91 93 94 94 96 97 94 92
80 68 64 79 82 84 81 74 75 76 77 84 84 97 96 99 97 96 95 95 94 98 98 98 98 95 96 96 88 79 79 80 73 80 97 96 87 77 73 71 79 88 89 88 83 88 92 94 96 95 93 94 94 98
67 57 69 80 82 83 78 68 72 61 79 83 78 94 96 95 99 97 95 98 94 95 95 95 94 94 91 87 81 78 65 75 92 99 95 86 85 83 83 80 88 87 84 83 80 77 85 93 90 84 85 85 89 90
60 70 75 81 81 78 65 59 64 57 78 77 93 96 93 96 97 98 93 98 80 91 92 92 85 73 90 87 77 87 98 99 98 96 95 87 87 90 94 92 94 89 84 80 79 87 85 82 86 85 87 83 82 82
73 75 76 80 79 67 68 69 71 78 79 90 97 96 96 97 96 95 94 88 93 92 89 85 82 74 84 69 93 98 92 94 92 90 92 87 89 90 89 93 92 88 82 92 91 90 92 93 89 94 79 74 80 83
77 83 78 80 82 85 76 76 73 83 89 92 94 92 96 95 93 91 96 92 89 90 94 92 77 87 97 98 97 97 96 97 96 95 93 91 92 92 94 93 92 94 93 93 82 92 91 81 84 91 89 91 97 96
74 74 74 82 76 70 66 75 66 73 84 86 84 89 91 96 93 96 96 92 93 94 91 86 96 94 99 99 98 97 98 95 95 98 99 100 97 92 92 92 96 82 89 84 86 82 90 90 90 90 94 93 96 94
68 70 77 69 66 69 74 84 78 73 75 83 78 82 93 90 94 95 95 87 95 95 92 94 99 91 96 98 95 93 91 91 94 95 99 98 98 93 96 95 86 91 92 95 95 96 95 96 95 94 96 96 96 96
74 74 73 66 74 63 75 68 76 75 82 81 79 84 91 95 95 94 87 91 93 94 94 97 94 93 90 93 98 92 90 83 81 87 86 94 99 98 96 95 93 95 95 95 96 96 95 96 95 93 97 96 94 98
72 74 80 66 82 80 85 68 69 65 80 79 74 76 89 92 95 90 95 88 94 96 95 96 97 90 96 96 89 86 87 79 93 92 88 92 92 93 92 93 94 94 96 96 94 95 97 97 92 94 96 98 99 98
78 78 86 85 82 89 85 87 70 66 75 76 76 72 77 94 86 92 85 94 98 94 95 96 94 97 92 88 96 96 92 93 86 89 88 88 91 93 89 90 93 94 92 95 96 97 97 97 97 96 98 99 96 96
87 88 95 84 81 86 88 86 80 75 86 79 72 81 90 82 88 87 77 97 97 97 95 90 93 93 94 95 96 97 90 89 92 92 94 82 90 93 93 92 90 94 94 97 98 98 98 97 98 98 97 97 96 96
97 92 94 84 90 86 79 89 90 88 84 82 81 83 88 88 83 85 82 97 98 96 94 91 92 96 95 92 93 97 93 86 79 85 90 78 85 92 92 93 99 99 96 97 98 99 98 98 97 98 99 98 96 95
95 94 78 73 69 67 83 78 71 84 86 87 91 89 91 94 88 88 95 95 96 97 93 93 94 92 86 86 82 81 82 80 84 83 82 78 81 90 94 98 98 97 95 95 96 99 100 100 97 98 100 99 98 96
84 79 88 87 84 77 85 86 84 86 88 77 84 89 88 84 87 95 95 95 93 91 92 94 93 83 79 82 84 89 92 92 88 87 86 88 92 93 91 95 95 92 96 95 94 97 98 100 97 97 97 98 98 96
87 76 81 93 87 87 89 88 89 85 81 85 88 90 88 95 98 96 95 96 93 89 90 94 97 88 89 90 91 92 94 94 93 98 97 99 99 98 97 97 97 96 97 97 91 98 94 98 98 98 98 97 97 98
86 79 89 94 92 90 92 90 94 99 91 94 92 81 91 98 95 97 94 96 96 95 95 93 95 92 94 93 97 96 97 95 97 93 92 94 99 98 95 96 96 95 93 96 97 95 93 98 94 96 98 97 97 99
81 84 88 92 93 94 96 97 96 97 96 96 98 95 97 99 95 94 96 96 96 96 93 95 93 93 93 95 94 98 100 99 93 96 96 97 97 98 98 97 97 97 94 93 93 97 95 98 98 98 98 98 98 98
88 86 90 90 97 98 97 97 98 96 97 96 96 95 98 96 97 99 99 99 96 96 95 92 93 96 93 95 94 97 91 95 94 95 93 96 98 96 94 97 94 93 96 91 92 91 91 97 97 97 96 98 98 97
93 92 94 94 98 98 98 96 95 92 95 95 95 93 95 92 94 99 97 98 99 97 96 92 95 95 93 93 94 95 94 95 98 99 99 100 100 100 97 96 95 94 89 93 94 91 89 95 96 98 98 97 97 97
Wind_Speed
16 19 23 26 28 29 29 29 30 31 30 29 29 29 28 27 25 17 10 11 11 5 6 13 13 5 8 9 8 4 5 0 1 6 6 5 5 8 5 6 10 12 10 6 7 7 12 11 7 13 6 5 6 5
10 15 21 23 25 27 26 27 28 29 30 30 29 28 28 26 26 23 9 12 11 7 4 2 2 3 3 2 2 9 1 6 6 4 3 3 3 4 7 6 7 7 11 8 9 7 3 1 3 7 5 6 4 5
5 8 13 18 21 24 27 26 26 28 29 29 28 28 26 24 25 24 10 7 9 4 2 3 6 3 1 4 4 4 2 1 4 1 3 2 4 4 7 6 5 8 9 4 6 8 4 2 6 3 4 4 6 6
7 8 11 16 21 24 25 26 27 28 28 28 27 26 24 23 24 27 12 5 6 3 5 2 2 4 3 3 5 5 8 5 4 2 2 2 3 4 2 2 7 5 12 9 7 10 4 4 1 5 6 5 5 4
15 5 5 12 19 22 25 27 28 27 29 29 27 25 23 23 26 17 9 7 7 6 3 3 2 2 4 6 10 8 8 9 4 4 4 5 3 4 2 2 4 5 6 9 4 5 6 2 5 7 6 5 7 6
26 23 19 10 10 19 24 25 28 28 27 25 25 23 22 23 24 5 1 5 11 5 5 3 1 2 2 3 8 11 9 3 3 3 3 3 3 4 4 4 5 6 7 7 2 5 6 6 7 10 10 8 9 7
20 22 22 20 18 15 19 29 29 28 27 26 24 21 20 18 7 3 3 4 15 6 3 5 3 1 2 4 2 2 4 3 2 2 3 3 2 3 1 3 5 9 9 5 6 7 7 10 5 7 8 9 8 6
23 21 22 23 27 24 26 29 34 32 28 25 23 20 17 14 12 4 4 18 10 5 2 3 3 3 2 2 3 2 2 3 3 2 2 3 3 2 4 8 2 2 5 11 10 12 8 6 8 8 7 7 7 6
25 25 25 28 35 17 20 42 38 36 32 28 24 18 7 4 3 3 19 14 5 4 4 3 6 4 3 1 2 2 2 2 0 2 2 4 3 5 6 9 12 6 7 10 9 9 8 7 6 6 6 7 5 4
28 27 28 31 39 27 31 40 40 38 35 30 11 5 3 2 20 9 6 3 3 2 2 2 3 4 5 2 2 3 1 2 1 2 1 2 3 6 7 8 11 10 9 10 9 6 6 7 5 5 6 6 4 2
28 29 28 30 32 35 34 33 38 37 25 5 4 4 4 9 3 2 3 3 3 3 3 2 3 7 2 3 2 2 2 2 3 3 5 3 3 3 9 10 8 9 9 9 9 8 6 5 5 3 4 3 2 3
24 27 27 25 27 24 23 22 19 7 3 9 12 6 3 2 2 3 3 3 4 6 4 3 6 5 3 3 2 2 2 3 4 4 4 3 1 11 10 10 9 8 8 8 7 8 6 5 3 3 3 4 4 3
22 25 27 24 25 29 33 32 32 33 19 5 5 4 3 2 3 6 7 3 3 5 5 5 6 4 4 3 2 3 5 4 5 2 4 2 9 9 8 9 8 7 7 8 7 5 3 4 4 1 2 3 3 4
16 19 24 25 19 12 11 7 8 7 4 4 4 3 2 2 2 2 5 4 3 6 9 5 4 2 3 3 3 4 4 4 3 4 4 5 10 9 9 9 7 7 6 6 5 5 4 3 3 3 4 3 3 5
11 9 19 23 22 18 13 8 2 2 4 4 4 2 2 2 2 2 4 6 7 6 6 5 3 3 2 2 3 2 3 4 4 4 2 5 10 10 9 8 8 7 6 4 4 4 5 4 3 4 5 5 5 5
11 6 10 21 18 16 11 2 4 1 4 4 4 3 2 4 4 4 7 9 6 6 2 3 3 4 4 4 3 5 5 4 1 2 5 7 8 7 7 6 6 6 6 4 2 1 3 4 1 4 4 5 5 6
8 4 16 17 19 13 9 3 3 4 4 3 2 3 5 4 4 3 4 3 5 4 3 3 4 4 2 1 2 1 2 3 5 5 3 5 7 8 8 8 6 5 5 2 2 5 3 4 4 5 6 6 6 5
3 7 19 18 14 2 3 4 4 5 5 3 4 2 3 3 3 2 2 3 3 1 2 2 3 2 4 3 2 3 4 3 3 5 5 7 7 8 6 7 5 5 3 3 3 1 2 3 4 4 5 5 5 5
8 8 18 18 9 0 4 5 4 4 2 2 2 3 3 2 2 4 3 2 1 1 3 3 3 0 2 2 5 4 3 3 4 3 4 7 8 7 7 6 5 3 2 2 1 2 3 4 3 3 3 3 2 3
12 3 20 20 10 4 4 2 1 4 3 3 3 2 3 2 1 2 2 2 2 2 4 2 2 3 3 1 2 3 3 4 5 4 3 3 3 5 5 5 3 4 2 0 2 3 3 3 3 3 3 3 3 4
8 7 12 5 4 5 3 2 4 3 3 2 3 3 3 2 2 1 1 1 4 0 1 1 5 5 6 3 4 4 5 4 3 3 3 5 2 4 3 2 3 2 2 2 2 3 4 1 2 2 2 3 4 4
4 12 3 4 4 4 4 3 4 1 3 3 2 4 2 0 1 3 3 2 1 3 1 3 6 6 4 4 3 4 4 7 8 5 7 6 3 3 3 2 3 2 2 2 3 2 2 2 3 4 3 4 6 2
5 5 3 3 5 4 2 3 3 4 4 4 2 3 2 2 3 3 1 3 4 1 4 5 5 7 8 4 6 5 4 5 5 4 4 4 3 3 2 1 3 4 3 2 2 2 2 4 6 7 5 3 1 3
2 3 4 2 3 2 2 2 1 3 3 3 4 2 3 3 2 1 3 2 2 3 6 7 7 7 5 5 3 2 2 3 5 4 3 4 3 2 3 2 3 4 4 3 2 2 3 3 6 4 4 3 7 7
1 2 2 1 2 3 2 1 2 3 2 2 3 0 2 3 2 2 3 3 2 4 3 6 4 4 4 3 4 2 2 3 3 4 2 4 4 3 3 4 6 3 3 4 3 3 3 3 3 3 5 5 7 7
3 4 5 6 2 3 4 3 3 4 3 1 2 2 2 2 1 4 3 3 3 6 4 5 5 3 3 5 6 3 2 2 4 4 1 4 4 4 2 3 4 1 2 3 3 3 4 4 3 5 4 5 7 7
3 4 4 4 4 2 1 2 3 4 3 4 3 3 3 2 5 4 1 1 3 3 4 4 3 4 6 6 6 6 5 5 4 5 4 6 6 5 4 4 4 3 1 4 4 4 3 4 4 3 4 3 4 5
4 2 5 3 0 2 3 2 1 3 4 3 5 4 7 7 5 1 2 1 5 5 5 3 2 6 8 8 7 7 6 4 5 6 5 5 4 4 4 4 3 4 3 3 3 3 3 3 4 6 6 5 4 5
3 3 4 2 2 1 3 5 4 3 3 4 6 3 4 2 1 3 1 2 4 6 6 7 4 7 8 6 6 6 5 4 6 5 5 3 2 2 2 3 3 2 3 3 3 3 3 2 3 4 5 5 5 4
3 2 3 4 5 5 4 4 1 2 3 1 3 2 3 2 1 2 4 3 4 3 3 6 4 6 7 7 6 5 2 4 4 5 5 4 4 4 4 3 3 2 1 3 4 1 3 3 4 4 4 4 5 4
3 3 2 3 3 2 3 4 1 2 3 3 2 3 2 3 2 1 2 3 3 5 8 7 6 5 6 6 6 5 3 3 6 6 5 4 4 4 3 3 3 3 2 2 2 2 2 1 3 4 5 6 7 6
3 4 4 4 3 3 2 2 3 2 2 2 2 2 3 2 3 2 2 1 5 6 8 9 8 6 5 4 4 3 8 7 5 4 6 4 4 4 4 3 3 2 2 2 3 2 1 1 3 6 6 6 7 8
3 3 3 3 3 5 2 3 3 1 2 3 3 4 4 5 5 1 1 2 1 3 7 6 6 9 10 9 9 7 8 7 10 10 9 9 7 5 3 2 2 2 3 1 3 3 3 4 5 5 6 7 8 8
Wind_Direction
235 232 219 215 213 208 205 204 204 206 202 202 200 198 200 202 204 202 218 192 188 205 182 195 238 264 205 213 199 161 90 146 124 193 188 176 187 187 180 177 168 176 176 197 212 235 252 208 218 198 185 142 126 114
240 227 216 210 206 202 202 204 203 204 202 201 198 199 200 201 204 199 225 199 198 216 165 41 73 151 203 51 113 181 169 151 169 179 197 137 180 170 170 203 159 200 194 173 197 208 206 123 189 102 127 145 142 108
242 209 196 195 194 198 202 203 205 204 203 199 199 199 202 202 204 202 216 177 184 171 101 177 227 171 84 182 177 140 353 163 183 186 145 145 204 169 175 215 173 223 197 220 152 240 187 175 97 110 148 114 81 83
6 217 204 200 200 200 201 204 205 203 200 198 199 198 200 204 207 203 210 182 149 125 201 191 95 211 128 212 221 208 204 166 135 93 127 171 201 199 224 311 212 184 167 190 240 267 346 189 350 82 64 95 89 57
24 33 230 223 218 210 207 203 203 201 194 194 193 197 198 203 208 204 198 180 159 165 126 128 128 189 263 218 217 187 195 182 134 158 185 197 191 157 175 141 230 198 179 188 199 183 128 140 69 62 54 37 34 31
35 37 32 22 245 224 212 202 193 191 187 184 189 196 200 202 203 144 290 189 164 137 107 153 41 235 228 206 208 185 172 101 126 162 186 192 232 139 157 203 252 198 155 232 130 56 117 120 75 66 75 46 35 29
6 13 9 357 338 295 233 206 192 183 179 182 185 191 192 194 166 139 193 176 116 95 108 124 168 218 0 63 53 63 106 127 149 181 192 157 186 109 133 190 221 184 178 122 85 115 89 53 88 87 72 51 36 21
5 355 348 337 324 292 218 198 190 181 175 174 176 177 170 124 103 72 354 127 95 91 125 127 88 148 196 128 123 167 156 148 180 150 179 160 105 156 217 228 294 340 110 84 88 82 91 82 69 74 74 59 43 27
6 0 347 344 346 338 198 173 170 166 163 159 163 132 89 47 89 98 100 77 58 94 135 131 151 161 155 106 126 144 172 151 85 166 226 155 175 207 223 214 163 138 111 122 88 93 96 93 86 87 78 71 62 9
10 7 6 9 13 46 101 137 150 149 150 140 105 76 90 215 138 133 34 76 60 13 42 207 118 142 152 134 96 115 171 132 180 229 91 179 237 251 180 108 120 116 119 129 113 105 110 106 93 81 77 96 93 30
11 16 21 18 31 49 87 116 130 132 114 61 86 74 105 91 100 81 119 135 119 173 173 202 137 125 3 110 93 175 126 198 185 192 164 221 244 146 113 107 110 107 96 82 88 89 79 101 84 60 79 82 13 25
6 17 26 35 38 63 82 88 92 68 85 117 105 117 150 125 124 135 131 134 195 188 161 139 134 110 113 116 131 177 125 235 213 180 146 233 96 122 119 112 101 97 108 111 117 123 128 109 99 48 37 41 40 12
4 11 29 49 62 83 84 87 96 114 107 90 77 92 149 205 123 145 176 161 171 144 159 155 133 114 151 135 146 158 187 220 143 111 215 220 135 129 140 127 109 107 110 104 100 90 89 70 46 36 307 306 8 337
15 14 17 22 27 21 11 25 32 21 66 76 92 87 150 197 239 203 166 129 126 121 128 112 90 109 132 122 143 155 210 132 194 196 230 155 152 148 140 131 129 140 107 125 161 171 167 183 233 258 250 231 258 271
14 80 28 2 354 347 341 336 297 34 84 70 49 48 16 52 42 50 83 92 101 101 113 136 114 76 80 109 228 160 159 195 213 208 136 129 133 132 135 149 147 139 142 157 185 183 208 210 216 257 263 256 240 233
19 111 17 353 343 330 309 297 144 62 62 60 56 64 119 101 101 80 114 120 117 118 76 70 120 146 199 171 156 200 180 200 169 88 111 119 122 134 156 149 132 139 144 148 156 150 121 118 226 300 307 297 269 243
41 49 340 348 342 321 10 77 62 63 66 50 17 35 87 67 83 64 93 105 144 139 164 124 133 197 118 116 206 160 85 111 123 123 120 138 125 107 106 108 107 107 101 88 54 64 42 336 307 295 284 282 282 290
39 327 338 347 351 32 20 32 73 62 51 33 72 348 46 82 89 47 56 36 51 333 55 179 146 123 177 189 134 131 107 105 98 106 105 100 101 103 114 115 94 95 101 102 120 191 258 266 272 261 294 298 299 295
314 313 334 336 352 351 58 14 56 91 72 70 68 52 74 82 74 90 81 17 10 46 83 19 68 137 82 48 118 121 132 136 132 101 81 95 105 110 108 113 140 166 169 134 271 247 250 265 265 280 289 341 352 324
317 310 343 322 329 79 68 15 100 111 141 177 103 108 105 82 54 38 76 11 41 48 39 51 74 76 116 292 102 130 133 126 118 118 123 105 118 132 144 163 174 134 146 304 346 23 15 355 351 4 4 337 322 306
342 343 322 343 21 46 83 60 36 116 143 136 144 98 109 105 84 56 147 92 49 63 243 176 109 107 60 28 62 74 58 98 113 109 132 126 158 143 148 126 98 85 83 62 49 10 39 359 295 330 321 289 276 281
349 326 306 331 41 46 68 337 121 205 91 139 90 116 108 86 190 205 124 92 198 237 179 101 131 132 125 76 56 77 82 99 97 95 91 103 104 85 79 104 85 91 80 89 85 70 332 295 313 298 273 285 294 296
319 348 338 352 64 51 258 306 153 173 128 160 86 133 170 196 160 110 136 203 202 132 115 109 106 118 124 128 96 70 62 114 108 114 105 100 107 120 127 126 111 112 92 46 76 55 319 305 311 305 295 296 37 80
170 34 356 39 81 119 344 305 227 99 93 154 169 195 151 130 174 176 231 173 134 117 110 122 122 120 113 123 109 147 186 101 101 92 109 112 102 58 98 109 93 91 113 120 76 21 341 325 319 338 329 28 73 82
296 287 106 122 154 141 152 231 342 94 153 226 117 64 136 143 127 228 230 160 136 133 149 136 132 142 140 146 137 124 169 115 136 146 173 110 107 57 38 72 84 78 87 74 25 14 329 338 347 35 33 58 86 86
258 203 164 176 208 174 173 133 169 194 131 83 147 93 63 107 110 241 234 144 132 153 167 158 157 141 148 152 141 142 183 118 93 94 53 99 101 126 152 134 132 32 29 101 85 20 351 339 341 95 80 71 92 96
251 212 193 231 176 224 175 117 174 120 130 171 167 125 110 163 235 240 166 119 126 148 142 136 148 162 127 101 96 96 81 67 90 115 110 85 79 74 98 118 107 206 56 88 70 58 27 341 334 124 124 102 102 107
232 260 164 210 56 128 131 79 100 168 191 185 117 166 172 193 225 213 154 177 116 119 114 104 70 110 120 122 116 104 83 78 78 77 71 64 78 92 92 107 119 111 68 92 92 65 56 340 333 93 95 99 96 100
226 218 115 131 110 194 172 177 205 226 208 137 148 187 210 74 138 124 145 117 97 110 109 99 60 93 96 95 95 103 122 123 121 126 155 183 142 278 146 121 135 112 111 119 96 119 99 17 50 98 98 96 102 91
232 182 142 144 159 203 226 168 200 358 10 112 111 79 69 69 80 37 94 90 109 132 125 120 120 118 130 130 125 116 80 104 96 142 171 196 183 130 119 128 127 132 90 95 150 81 35 41 71 67 73 90 95 96
171 162 193 139 203 189 136 105 82 47 34 50 19 86 100 108 138 193 132 147 129 124 138 141 142 142 143 144 143 131 110 28 90 74 90 105 113 115 116 114 109 90 80 92 77 92 127 255 131 127 121 117 120 119
174 190 165 162 144 114 107 161 143 150 153 129 222 131 101 110 214 147 26 11 162 172 162 153 150 160 149 119 110 115 125 127 121 126 114 110 105 118 113 108 100 83 64 114 115 121 72 18 138 114 125 137 132 127
158 152 180 130 138 161 168 154 143 252 198 190 215 182 165 164 204 159 327 353 330 152 142 136 114 111 116 109 110 102 93 98 100 94 82 84 88 81 78 89 104 99 103 50 129 109 98 99 116 127 122 117 119 125